Year,Month,Day,Hour,Minute,Value (Times are PST for temperature in C)
2009,10,27,00,00,6.90
2009,10,27,00,01,6.90
2009,10,27,00,02,6.90
2009,10,27,00,03,6.80
2009,10,27,00,04,6.80
2009,10,27,00,05,6.70
2009,10,27,00,06,6.70
2009,10,27,00,07,6.60
2009,10,27,00,08,6.60
2009,10,27,00,09,6.50
2009,10,27,00,10,6.50
2009,10,27,00,11,6.40
2009,10,27,00,12,6.40
2009,10,27,00,13,6.40
2009,10,27,00,14,6.40
2009,10,27,00,15,6.30
2009,10,27,00,16,6.30
2009,10,27,00,17,6.30
2009,10,27,00,18,6.30
2009,10,27,00,19,6.30
2009,10,27,00,20,6.20
2009,10,27,00,21,6.20
2009,10,27,00,22,6.20
2009,10,27,00,23,6.10
2009,10,27,00,24,6.10
2009,10,27,00,25,6.10
2009,10,27,00,26,6.10
2009,10,27,00,27,6.10
2009,10,27,00,28,6.10
2009,10,27,00,29,6.10
2009,10,27,00,30,6.10
2009,10,27,00,31,6.10
2009,10,27,00,32,6.10
2009,10,27,00,33,6.10
2009,10,27,00,34,6.20
2009,10,27,00,35,6.20
2009,10,27,00,36,6.20
2009,10,27,00,37,6.20
2009,10,27,00,38,6.30
2009,10,27,00,39,6.30
2009,10,27,00,40,6.30
2009,10,27,00,41,6.30
2009,10,27,00,42,6.30
2009,10,27,00,43,6.30
2009,10,27,00,44,6.30
2009,10,27,00,45,6.30
2009,10,27,00,46,6.20
2009,10,27,00,47,6.20
2009,10,27,00,48,6.20
2009,10,27,00,49,6.10
2009,10,27,00,50,6.10
2009,10,27,00,51,6.10
2009,10,27,00,52,6.10
2009,10,27,00,53,6.10
2009,10,27,00,54,6.10
2009,10,27,00,55,6.10
2009,10,27,00,56,6.20
2009,10,27,00,57,6.20
2009,10,27,00,58,6.20
2009,10,27,00,59,6.20
2009,10,27,01,00,6.20
2009,10,27,01,01,6.20
2009,10,27,01,02,6.20
2009,10,27,01,03,6.20
2009,10,27,01,04,6.10
2009,10,27,01,05,6.10
2009,10,27,01,06,6.10
2009,10,27,01,07,6.10
2009,10,27,01,08,6.10
2009,10,27,01,09,6.10
2009,10,27,01,10,6.10
2009,10,27,01,11,6.10
2009,10,27,01,12,6.10
2009,10,27,01,13,6.10
2009,10,27,01,14,6.10
2009,10,27,01,15,6.10
2009,10,27,01,16,6.10
2009,10,27,01,17,6.10
2009,10,27,01,18,6.10
2009,10,27,01,19,6.20
2009,10,27,01,20,6.20
2009,10,27,01,21,6.20
2009,10,27,01,22,6.20
2009,10,27,01,23,6.20
2009,10,27,01,24,6.20
2009,10,27,01,25,6.30
2009,10,27,01,26,6.30
2009,10,27,01,27,6.40
2009,10,27,01,28,6.40
2009,10,27,01,29,6.50
2009,10,27,01,30,6.50
2009,10,27,01,31,6.50
2009,10,27,01,32,6.60
2009,10,27,01,33,6.60
2009,10,27,01,34,6.60
2009,10,27,01,35,6.70
2009,10,27,01,36,6.70
2009,10,27,01,37,6.70
2009,10,27,01,38,6.70
2009,10,27,01,39,6.70
2009,10,27,01,40,6.70
2009,10,27,01,41,6.70
2009,10,27,01,42,6.80
2009,10,27,01,43,6.80
2009,10,27,01,44,6.80
2009,10,27,01,45,6.80
2009,10,27,01,46,6.70
2009,10,27,01,47,6.70
2009,10,27,01,48,6.70
2009,10,27,01,49,6.70
2009,10,27,01,50,6.70
2009,10,27,01,51,6.60
2009,10,27,01,52,6.60
2009,10,27,01,53,6.50
2009,10,27,01,54,6.50
2009,10,27,01,55,6.40
2009,10,27,01,56,6.40
2009,10,27,01,57,6.30
2009,10,27,01,58,6.30
2009,10,27,01,59,6.30
2009,10,27,02,00,6.30
2009,10,27,02,01,6.30
2009,10,27,02,02,6.30
2009,10,27,02,03,6.30
2009,10,27,02,04,6.30
2009,10,27,02,05,6.30
2009,10,27,02,06,6.40
2009,10,27,02,07,6.40
2009,10,27,02,08,6.50
2009,10,27,02,09,6.50
2009,10,27,02,10,6.60
2009,10,27,02,11,6.70
2009,10,27,02,12,6.70
2009,10,27,02,13,6.80
2009,10,27,02,14,6.80
2009,10,27,02,15,6.90
2009,10,27,02,16,6.90
2009,10,27,02,17,6.90
2009,10,27,02,18,7.00
2009,10,27,02,19,7.00
2009,10,27,02,20,7.10
2009,10,27,02,21,7.10
2009,10,27,02,22,7.10
2009,10,27,02,23,7.10
2009,10,27,02,24,7.20
2009,10,27,02,25,7.20
2009,10,27,02,26,7.20
2009,10,27,02,27,7.20
2009,10,27,02,28,7.20
2009,10,27,02,29,7.20
2009,10,27,02,30,7.20
2009,10,27,02,31,7.20
2009,10,27,02,32,7.20
2009,10,27,02,33,7.20
2009,10,27,02,34,7.20
2009,10,27,02,35,7.20
2009,10,27,02,36,7.20
2009,10,27,02,37,7.20
2009,10,27,02,38,7.20
2009,10,27,02,39,7.20
2009,10,27,02,40,7.20
2009,10,27,02,41,7.20
2009,10,27,02,42,7.20
2009,10,27,02,43,7.20
2009,10,27,02,44,7.30
2009,10,27,02,45,7.20
2009,10,27,02,46,7.20
2009,10,27,02,47,7.20
2009,10,27,02,48,7.20
2009,10,27,02,49,7.20
2009,10,27,02,50,7.20
2009,10,27,02,51,7.20
2009,10,27,02,52,7.20
2009,10,27,02,53,7.20
2009,10,27,02,54,7.20
2009,10,27,02,55,7.20
2009,10,27,02,56,7.20
2009,10,27,02,57,7.20
2009,10,27,02,58,7.20
2009,10,27,02,59,7.20
2009,10,27,03,00,7.20
2009,10,27,03,01,7.20
2009,10,27,03,02,7.20
2009,10,27,03,03,7.20
2009,10,27,03,04,7.20
2009,10,27,03,05,7.20
2009,10,27,03,06,7.20
2009,10,27,03,07,7.20
2009,10,27,03,08,7.10
2009,10,27,03,09,7.10
2009,10,27,03,10,7.10
2009,10,27,03,11,7.10
2009,10,27,03,12,7.10
2009,10,27,03,13,7.10
2009,10,27,03,14,7.10
2009,10,27,03,15,7.10
2009,10,27,03,16,7.00
2009,10,27,03,17,7.00
2009,10,27,03,18,7.00
2009,10,27,03,19,7.00
2009,10,27,03,20,7.00
2009,10,27,03,21,7.00
2009,10,27,03,22,6.90
2009,10,27,03,23,7.00
2009,10,27,03,24,7.00
2009,10,27,03,25,7.00
2009,10,27,03,26,7.00
2009,10,27,03,27,7.00
2009,10,27,03,28,7.10
2009,10,27,03,29,7.10
2009,10,27,03,30,7.00
2009,10,27,03,31,7.00
2009,10,27,03,32,7.00
2009,10,27,03,33,7.00
2009,10,27,03,34,6.90
2009,10,27,03,35,6.90
2009,10,27,03,36,6.90
2009,10,27,03,37,6.90
2009,10,27,03,38,6.90
2009,10,27,03,39,6.90
2009,10,27,03,40,6.90
2009,10,27,03,41,6.90
2009,10,27,03,42,6.90
2009,10,27,03,43,6.90
2009,10,27,03,44,6.90
2009,10,27,03,45,7.00
2009,10,27,03,46,7.00
2009,10,27,03,47,7.00
2009,10,27,03,48,7.00
2009,10,27,03,49,7.00
2009,10,27,03,50,7.10
2009,10,27,03,51,7.10
2009,10,27,03,52,7.10
2009,10,27,03,53,7.10
2009,10,27,03,54,7.10
2009,10,27,03,55,7.20
2009,10,27,03,56,7.20
2009,10,27,03,57,7.20
2009,10,27,03,58,7.20
2009,10,27,03,59,7.20
2009,10,27,04,00,7.20
2009,10,27,04,01,7.20
2009,10,27,04,02,7.20
2009,10,27,04,03,7.20
2009,10,27,04,04,7.30
2009,10,27,04,05,7.30
2009,10,27,04,06,7.30
2009,10,27,04,07,7.30
2009,10,27,04,08,7.30
2009,10,27,04,09,7.30
2009,10,27,04,10,7.30
2009,10,27,04,11,7.30
2009,10,27,04,12,7.30
2009,10,27,04,13,7.30
2009,10,27,04,14,7.30
2009,10,27,04,15,7.30
2009,10,27,04,16,7.30
2009,10,27,04,17,7.30
2009,10,27,04,18,7.30
2009,10,27,04,19,7.30
2009,10,27,04,20,7.20
2009,10,27,04,21,7.20
2009,10,27,04,22,7.20
2009,10,27,04,23,7.20
2009,10,27,04,24,7.20
2009,10,27,04,25,7.20
2009,10,27,04,26,7.20
2009,10,27,04,27,7.20
2009,10,27,04,28,7.20
2009,10,27,04,29,7.20
2009,10,27,04,30,7.20
2009,10,27,04,31,7.10
2009,10,27,04,32,7.10
2009,10,27,04,33,7.10
2009,10,27,04,34,7.10
2009,10,27,04,35,7.00
2009,10,27,04,36,7.00
2009,10,27,04,37,7.00
2009,10,27,04,38,6.90
2009,10,27,04,39,6.90
2009,10,27,04,40,6.90
2009,10,27,04,41,6.80
2009,10,27,04,42,6.80
2009,10,27,04,43,6.80
2009,10,27,04,44,6.70
2009,10,27,04,45,6.70
2009,10,27,04,46,6.70
2009,10,27,04,47,6.60
2009,10,27,04,48,6.60
2009,10,27,04,49,6.50
2009,10,27,04,50,6.50
2009,10,27,04,51,6.40
2009,10,27,04,52,6.40
2009,10,27,04,53,6.40
2009,10,27,04,54,6.30
2009,10,27,04,55,6.30
2009,10,27,04,56,6.20
2009,10,27,04,57,6.20
2009,10,27,04,58,6.10
2009,10,27,04,59,6.10
2009,10,27,05,00,6.10
2009,10,27,05,01,6.00
2009,10,27,05,02,6.00
2009,10,27,05,03,5.90
2009,10,27,05,04,5.90
2009,10,27,05,05,5.90
2009,10,27,05,06,5.90
2009,10,27,05,07,5.80
2009,10,27,05,08,5.80
2009,10,27,05,09,5.80
2009,10,27,05,10,5.70
2009,10,27,05,11,5.70
2009,10,27,05,12,5.70
2009,10,27,05,13,5.60
2009,10,27,05,14,5.60
2009,10,27,05,15,5.60
2009,10,27,05,16,5.50
2009,10,27,05,17,5.40
2009,10,27,05,18,5.40
2009,10,27,05,19,5.40
2009,10,27,05,20,5.30
2009,10,27,05,21,5.30
2009,10,27,05,22,5.20
2009,10,27,05,23,5.20
2009,10,27,05,24,5.10
2009,10,27,05,25,5.10
2009,10,27,05,26,5.10
2009,10,27,05,27,5.00
2009,10,27,05,28,5.00
2009,10,27,05,29,4.90
2009,10,27,05,30,4.90
2009,10,27,05,31,4.80
2009,10,27,05,32,4.80
2009,10,27,05,33,4.80
2009,10,27,05,34,4.70
2009,10,27,05,35,4.70
2009,10,27,05,36,4.60
2009,10,27,05,37,4.60
2009,10,27,05,38,4.60
2009,10,27,05,39,4.50
2009,10,27,05,40,4.50
2009,10,27,05,41,4.40
2009,10,27,05,42,4.40
2009,10,27,05,43,4.30
2009,10,27,05,44,4.30
2009,10,27,05,45,4.30
2009,10,27,05,46,4.30
2009,10,27,05,47,4.20
2009,10,27,05,48,4.20
2009,10,27,05,49,4.20
2009,10,27,05,50,4.20
2009,10,27,05,51,4.10
2009,10,27,05,52,4.10
2009,10,27,05,53,4.10
2009,10,27,05,54,4.00
2009,10,27,05,55,4.00
2009,10,27,05,56,4.00
2009,10,27,05,57,3.90
2009,10,27,05,58,3.90
2009,10,27,05,59,3.90
2009,10,27,06,00,3.90
2009,10,27,06,01,3.90
2009,10,27,06,02,3.80
2009,10,27,06,03,3.80
2009,10,27,06,04,3.80
2009,10,27,06,05,3.80
2009,10,27,06,06,3.80
2009,10,27,06,07,3.80
2009,10,27,06,08,3.80
2009,10,27,06,09,3.80
2009,10,27,06,10,3.70
2009,10,27,06,11,3.70
2009,10,27,06,12,3.70
2009,10,27,06,13,3.70
2009,10,27,06,14,3.60
2009,10,27,06,15,3.60
2009,10,27,06,16,3.60
2009,10,27,06,17,3.50
2009,10,27,06,18,3.50
2009,10,27,06,19,3.40
2009,10,27,06,20,3.40
2009,10,27,06,21,3.40
2009,10,27,06,22,3.40
2009,10,27,06,23,3.40
2009,10,27,06,24,3.40
2009,10,27,06,25,3.30
2009,10,27,06,26,3.30
2009,10,27,06,27,3.30
2009,10,27,06,28,3.30
2009,10,27,06,29,3.30
2009,10,27,06,30,3.30
2009,10,27,06,31,3.30
2009,10,27,06,32,3.30
2009,10,27,06,33,3.30
2009,10,27,06,34,3.30
2009,10,27,06,35,3.30
2009,10,27,06,36,3.30
2009,10,27,06,37,3.30
2009,10,27,06,38,3.30
2009,10,27,06,39,3.30
2009,10,27,06,40,3.30
2009,10,27,06,41,3.20
2009,10,27,06,42,3.20
2009,10,27,06,43,3.20
2009,10,27,06,44,3.20
2009,10,27,06,45,3.20
2009,10,27,06,46,3.10
2009,10,27,06,47,3.10
2009,10,27,06,48,3.10
2009,10,27,06,49,3.10
2009,10,27,06,50,3.10
2009,10,27,06,51,3.10
2009,10,27,06,52,3.00
2009,10,27,06,53,3.00
2009,10,27,06,54,3.00
2009,10,27,06,55,2.90
2009,10,27,06,56,2.90
2009,10,27,06,57,2.90
2009,10,27,06,58,2.90
2009,10,27,06,59,2.80
2009,10,27,07,00,2.80
2009,10,27,07,01,2.80
2009,10,27,07,02,2.80
2009,10,27,07,03,2.80
2009,10,27,07,04,2.80
2009,10,27,07,05,2.80
2009,10,27,07,06,2.80
2009,10,27,07,07,2.80
2009,10,27,07,08,2.80
2009,10,27,07,09,2.80
2009,10,27,07,10,2.80
2009,10,27,07,11,2.80
2009,10,27,07,12,2.90
2009,10,27,07,13,2.90
2009,10,27,07,14,2.80
2009,10,27,07,15,2.80
2009,10,27,07,16,2.80
2009,10,27,07,17,2.80
2009,10,27,07,18,2.80
2009,10,27,07,19,2.80
2009,10,27,07,20,2.80
2009,10,27,07,21,2.80
2009,10,27,07,22,2.80
2009,10,27,07,23,2.80
2009,10,27,07,24,2.80
2009,10,27,07,25,2.80
2009,10,27,07,26,2.80
2009,10,27,07,27,2.80
2009,10,27,07,28,2.80
2009,10,27,07,29,2.80
2009,10,27,07,30,2.80
2009,10,27,07,31,2.80
2009,10,27,07,32,2.80
2009,10,27,07,33,2.80
2009,10,27,07,34,2.80
2009,10,27,07,35,2.80
2009,10,27,07,36,2.80
2009,10,27,07,37,2.80
2009,10,27,07,38,2.80
2009,10,27,07,39,2.80
2009,10,27,07,40,2.80
2009,10,27,07,41,2.80
2009,10,27,07,42,2.70
2009,10,27,07,43,2.70
2009,10,27,07,44,2.70
2009,10,27,07,45,2.70
2009,10,27,07,46,2.70
2009,10,27,07,47,2.60
2009,10,27,07,48,2.60
2009,10,27,07,49,2.60
2009,10,27,07,50,2.60
2009,10,27,07,51,2.60
2009,10,27,07,52,2.60
2009,10,27,07,53,2.60
2009,10,27,07,54,2.60
2009,10,27,07,55,2.50
2009,10,27,07,56,2.50
2009,10,27,07,57,2.50
2009,10,27,07,58,2.40
2009,10,27,07,59,2.40
2009,10,27,08,00,2.40
2009,10,27,08,01,2.40
2009,10,27,08,02,2.40
2009,10,27,08,03,2.40
2009,10,27,08,04,2.40
2009,10,27,08,05,2.40
2009,10,27,08,06,2.40
2009,10,27,08,07,2.40
2009,10,27,08,08,2.40
2009,10,27,08,09,2.30
2009,10,27,08,10,2.30
2009,10,27,08,11,2.30
2009,10,27,08,12,2.30
2009,10,27,08,13,2.30
2009,10,27,08,14,2.30
2009,10,27,08,15,2.30
2009,10,27,08,16,2.30
2009,10,27,08,17,2.30
2009,10,27,08,18,2.40
2009,10,27,08,19,2.40
2009,10,27,08,20,2.50
2009,10,27,08,21,2.50
2009,10,27,08,22,2.50
2009,10,27,08,23,2.60
2009,10,27,08,24,2.60
2009,10,27,08,25,2.70
2009,10,27,08,26,2.70
2009,10,27,08,27,2.70
2009,10,27,08,28,2.70
2009,10,27,08,29,2.70
2009,10,27,08,30,2.70
2009,10,27,08,31,2.70
2009,10,27,08,32,2.70
2009,10,27,08,33,2.70
2009,10,27,08,34,2.70
2009,10,27,08,35,2.70
2009,10,27,08,36,2.70
2009,10,27,08,37,2.70
2009,10,27,08,38,2.70
2009,10,27,08,39,2.70
2009,10,27,08,40,2.80
2009,10,27,08,41,2.80
2009,10,27,08,42,2.90
2009,10,27,08,43,2.90
2009,10,27,08,44,3.00
2009,10,27,08,45,3.00
2009,10,27,08,46,3.00
2009,10,27,08,47,3.00
2009,10,27,08,48,3.00
2009,10,27,08,49,3.10
2009,10,27,08,50,3.10
2009,10,27,08,51,3.10
2009,10,27,08,52,3.20
2009,10,27,08,53,3.20
2009,10,27,08,54,3.20
2009,10,27,08,55,3.30
2009,10,27,08,56,3.30
2009,10,27,08,57,3.30
2009,10,27,08,58,3.30
2009,10,27,08,59,3.30
2009,10,27,09,00,3.30
2009,10,27,09,01,3.30
2009,10,27,09,02,3.30
2009,10,27,09,03,3.40
2009,10,27,09,04,3.40
2009,10,27,09,05,3.40
2009,10,27,09,06,3.50
2009,10,27,09,07,3.50
2009,10,27,09,08,3.50
2009,10,27,09,09,3.60
2009,10,27,09,10,3.60
2009,10,27,09,11,3.60
2009,10,27,09,12,3.70
2009,10,27,09,13,3.70
2009,10,27,09,14,3.70
2009,10,27,09,15,3.70
2009,10,27,09,16,3.80
2009,10,27,09,17,3.80
2009,10,27,09,18,3.80
2009,10,27,09,19,3.90
2009,10,27,09,20,4.00
2009,10,27,09,21,4.00
2009,10,27,09,22,4.10
2009,10,27,09,23,4.10
2009,10,27,09,24,4.20
2009,10,27,09,25,4.30
2009,10,27,09,26,4.30
2009,10,27,09,27,4.40
2009,10,27,09,28,4.40
2009,10,27,09,29,4.50
2009,10,27,09,30,4.60
2009,10,27,09,31,4.60
2009,10,27,09,32,4.70
2009,10,27,09,33,4.80
2009,10,27,09,34,4.80
2009,10,27,09,35,4.90
2009,10,27,09,36,5.00
2009,10,27,09,37,5.10
2009,10,27,09,38,5.10
2009,10,27,09,39,5.20
2009,10,27,09,40,5.30
2009,10,27,09,41,5.50
2009,10,27,09,42,5.60
2009,10,27,09,43,5.70
2009,10,27,09,44,5.80
2009,10,27,09,45,5.90
2009,10,27,09,46,6.00
2009,10,27,09,47,6.10
2009,10,27,09,48,6.20
2009,10,27,09,49,6.30
2009,10,27,09,50,6.30
2009,10,27,09,51,6.40
2009,10,27,09,52,6.50
2009,10,27,09,53,6.50
2009,10,27,09,54,6.60
2009,10,27,09,55,6.70
2009,10,27,09,56,6.80
2009,10,27,09,57,6.80
2009,10,27,09,58,6.90
2009,10,27,09,59,6.90
2009,10,27,10,00,7.00
2009,10,27,10,01,7.10
2009,10,27,10,02,7.20
2009,10,27,10,03,7.30
2009,10,27,10,04,7.40
2009,10,27,10,05,7.50
2009,10,27,10,06,7.60
2009,10,27,10,07,7.80
2009,10,27,10,08,7.90
2009,10,27,10,09,8.00
2009,10,27,10,10,8.10
2009,10,27,10,11,8.20
2009,10,27,10,12,8.30
2009,10,27,10,13,8.30
2009,10,27,10,14,8.40
2009,10,27,10,15,8.40
2009,10,27,10,16,8.50
2009,10,27,10,17,8.50
2009,10,27,10,18,8.60
2009,10,27,10,19,8.70
2009,10,27,10,20,8.70
2009,10,27,10,21,8.80
2009,10,27,10,22,8.80
2009,10,27,10,23,8.80
2009,10,27,10,24,8.80
2009,10,27,10,25,8.90
2009,10,27,10,26,8.90
2009,10,27,10,27,8.80
2009,10,27,10,28,8.80
2009,10,27,10,29,8.80
2009,10,27,10,30,8.80
2009,10,27,10,31,8.80
2009,10,27,10,32,8.80
2009,10,27,10,33,8.80
2009,10,27,10,34,8.80
2009,10,27,10,35,8.80
2009,10,27,10,36,8.80
2009,10,27,10,37,8.70
2009,10,27,10,38,8.80
2009,10,27,10,39,8.80
2009,10,27,10,40,8.80
2009,10,27,10,41,8.80
2009,10,27,10,42,8.90
2009,10,27,10,43,8.90
2009,10,27,10,44,8.90
2009,10,27,10,45,9.00
2009,10,27,10,46,9.10
2009,10,27,10,47,9.10
2009,10,27,10,48,9.20
2009,10,27,10,49,9.20
2009,10,27,10,50,9.20
2009,10,27,10,51,9.10
2009,10,27,10,52,9.10
2009,10,27,10,53,9.10
2009,10,27,10,54,9.10
2009,10,27,10,55,9.10
2009,10,27,10,56,9.00
2009,10,27,10,57,9.00
2009,10,27,10,58,9.00
2009,10,27,10,59,9.00
2009,10,27,11,00,9.00
2009,10,27,11,01,9.10
2009,10,27,11,02,9.10
2009,10,27,11,03,9.20
2009,10,27,11,04,9.30
2009,10,27,11,05,9.30
2009,10,27,11,06,9.40
2009,10,27,11,07,9.40
2009,10,27,11,08,9.40
2009,10,27,11,09,9.30
2009,10,27,11,10,9.30
2009,10,27,11,11,9.30
2009,10,27,11,12,9.30
2009,10,27,11,13,9.20
2009,10,27,11,14,9.20
2009,10,27,11,15,9.20
2009,10,27,11,16,9.10
2009,10,27,11,17,9.10
2009,10,27,11,18,9.10
2009,10,27,11,19,9.10
2009,10,27,11,20,9.10
2009,10,27,11,21,9.00
2009,10,27,11,22,9.00
2009,10,27,11,23,8.90
2009,10,27,11,24,8.90
2009,10,27,11,25,8.90
2009,10,27,11,26,8.90
2009,10,27,11,27,8.90
2009,10,27,11,28,8.90
2009,10,27,11,29,8.90
2009,10,27,11,30,8.90
2009,10,27,11,31,9.00
2009,10,27,11,32,9.00
2009,10,27,11,33,9.00
2009,10,27,11,34,9.00
2009,10,27,11,35,9.00
2009,10,27,11,36,9.00
2009,10,27,11,37,9.00
2009,10,27,11,38,9.10
2009,10,27,11,39,9.10
2009,10,27,11,40,9.10
2009,10,27,11,41,9.20
2009,10,27,11,42,9.20
2009,10,27,11,43,9.30
2009,10,27,11,44,9.30
2009,10,27,11,45,9.30
2009,10,27,11,46,9.30
2009,10,27,11,47,9.30
2009,10,27,11,48,9.40
2009,10,27,11,49,9.40
2009,10,27,11,50,9.40
2009,10,27,11,51,9.40
2009,10,27,11,52,9.40
2009,10,27,11,53,9.40
2009,10,27,11,54,9.40
2009,10,27,11,55,9.40
2009,10,27,11,56,9.30
2009,10,27,11,57,9.30
2009,10,27,11,58,9.30
2009,10,27,11,59,9.30
2009,10,27,12,00,9.30
2009,10,27,12,01,9.30
2009,10,27,12,02,9.30
2009,10,27,12,03,9.40
2009,10,27,12,04,9.40
2009,10,27,12,05,9.40
2009,10,27,12,06,9.50
2009,10,27,12,07,9.50
2009,10,27,12,08,9.50
2009,10,27,12,09,9.60
2009,10,27,12,10,9.70
2009,10,27,12,11,9.70
2009,10,27,12,12,9.70
2009,10,27,12,13,9.70
2009,10,27,12,14,9.80
2009,10,27,12,15,9.80
2009,10,27,12,16,9.80
2009,10,27,12,17,9.90
2009,10,27,12,18,9.90
2009,10,27,12,19,9.90
2009,10,27,12,20,9.90
2009,10,27,12,21,9.80
2009,10,27,12,22,9.70
2009,10,27,12,23,9.60
2009,10,27,12,24,9.60
2009,10,27,12,25,9.70
2009,10,27,12,26,9.70
2009,10,27,12,27,9.80
2009,10,27,12,28,9.80
2009,10,27,12,29,9.90
2009,10,27,12,30,9.90
2009,10,27,12,31,10.00
2009,10,27,12,32,10.10
2009,10,27,12,33,10.10
2009,10,27,12,34,10.00
2009,10,27,12,35,10.00
2009,10,27,12,36,9.90
2009,10,27,12,37,9.80
2009,10,27,12,38,9.70
2009,10,27,12,39,9.60
2009,10,27,12,40,9.50
2009,10,27,12,41,9.50
2009,10,27,12,42,9.40
2009,10,27,12,43,9.30
2009,10,27,12,44,9.30
2009,10,27,12,45,9.30
2009,10,27,12,46,9.20
2009,10,27,12,47,9.20
2009,10,27,12,48,9.20
2009,10,27,12,49,9.20
2009,10,27,12,50,9.20
2009,10,27,12,51,9.20
2009,10,27,12,52,9.30
2009,10,27,12,53,9.30
2009,10,27,12,54,9.30
2009,10,27,12,55,9.40
2009,10,27,12,56,9.40
2009,10,27,12,57,9.40
2009,10,27,12,58,9.50
2009,10,27,12,59,9.50
2009,10,27,13,00,9.50
2009,10,27,13,01,9.60
2009,10,27,13,02,9.60
2009,10,27,13,03,9.60
2009,10,27,13,04,9.50
2009,10,27,13,05,9.50
2009,10,27,13,06,9.60
2009,10,27,13,07,9.60
2009,10,27,13,08,9.60
2009,10,27,13,09,9.60
2009,10,27,13,10,9.50
2009,10,27,13,11,9.60
2009,10,27,13,12,9.60
2009,10,27,13,13,9.60
2009,10,27,13,14,9.60
2009,10,27,13,15,9.60
2009,10,27,13,16,9.60
2009,10,27,13,17,9.60
2009,10,27,13,18,9.60
2009,10,27,13,19,9.60
2009,10,27,13,20,9.60
2009,10,27,13,21,9.60
2009,10,27,13,22,9.60
2009,10,27,13,23,9.60
2009,10,27,13,24,9.60
2009,10,27,13,25,9.60
2009,10,27,13,26,9.60
2009,10,27,13,27,9.60
2009,10,27,13,28,9.60
2009,10,27,13,29,9.60
2009,10,27,13,30,9.60
2009,10,27,13,31,9.60
2009,10,27,13,32,9.60
2009,10,27,13,33,9.70
2009,10,27,13,34,9.70
2009,10,27,13,35,9.70
2009,10,27,13,36,9.80
2009,10,27,13,37,9.80
2009,10,27,13,38,9.80
2009,10,27,13,39,9.80
2009,10,27,13,40,9.80
2009,10,27,13,41,9.90
2009,10,27,13,42,9.90
2009,10,27,13,43,9.90
2009,10,27,13,44,9.90
2009,10,27,13,45,9.90
2009,10,27,13,46,9.90
2009,10,27,13,47,9.90
2009,10,27,13,48,9.90
2009,10,27,13,49,9.90
2009,10,27,13,50,9.90
2009,10,27,13,51,9.90
2009,10,27,13,52,9.90
2009,10,27,13,53,9.90
2009,10,27,13,54,9.90
2009,10,27,13,55,9.80
2009,10,27,13,56,9.80
2009,10,27,13,57,9.80
2009,10,27,13,58,9.80
2009,10,27,13,59,9.80
2009,10,27,14,00,9.80
2009,10,27,14,01,9.80
2009,10,27,14,02,9.70
2009,10,27,14,03,9.70
2009,10,27,14,04,9.70
2009,10,27,14,05,9.70
2009,10,27,14,06,9.70
2009,10,27,14,07,9.70
2009,10,27,14,08,9.70
2009,10,27,14,09,9.70
2009,10,27,14,10,9.70
2009,10,27,14,11,9.70
2009,10,27,14,12,9.70
2009,10,27,14,13,9.70
2009,10,27,14,14,9.70
2009,10,27,14,15,9.70
2009,10,27,14,16,9.70
2009,10,27,14,17,9.70
2009,10,27,14,18,9.70
2009,10,27,14,19,9.70
2009,10,27,14,20,9.70
2009,10,27,14,21,9.70
2009,10,27,14,22,9.70
2009,10,27,14,23,9.70
2009,10,27,14,24,9.70
2009,10,27,14,25,9.70
2009,10,27,14,26,9.70
2009,10,27,14,27,9.80
2009,10,27,14,28,9.80
2009,10,27,14,29,9.80
2009,10,27,14,30,9.80
2009,10,27,14,31,9.80
2009,10,27,14,32,9.80
2009,10,27,14,33,9.80
2009,10,27,14,34,9.70
2009,10,27,14,35,9.70
2009,10,27,14,36,9.70
2009,10,27,14,37,9.70
2009,10,27,14,38,9.70
2009,10,27,14,39,9.70
2009,10,27,14,40,9.70
2009,10,27,14,41,9.70
2009,10,27,14,42,9.70
2009,10,27,14,43,9.70
2009,10,27,14,44,9.70
2009,10,27,14,45,9.80
2009,10,27,14,46,9.80
2009,10,27,14,47,9.80
2009,10,27,14,48,9.70
2009,10,27,14,49,9.70
2009,10,27,14,50,9.80
2009,10,27,14,51,9.80
2009,10,27,14,52,9.80
2009,10,27,14,53,9.80
2009,10,27,14,54,9.80
2009,10,27,14,55,9.80
2009,10,27,14,56,9.80
2009,10,27,14,57,9.80
2009,10,27,14,58,9.80
2009,10,27,14,59,9.80
2009,10,27,15,00,9.80
2009,10,27,15,01,9.80
2009,10,27,15,02,9.80
2009,10,27,15,03,9.70
2009,10,27,15,04,9.70
2009,10,27,15,05,9.70
2009,10,27,15,06,9.70
2009,10,27,15,07,9.70
2009,10,27,15,08,9.70
2009,10,27,15,09,9.70
2009,10,27,15,10,9.70
2009,10,27,15,11,9.70
2009,10,27,15,12,9.70
2009,10,27,15,13,9.70
2009,10,27,15,14,9.70
2009,10,27,15,15,9.70
2009,10,27,15,16,9.70
2009,10,27,15,17,9.70
2009,10,27,15,18,9.70
2009,10,27,15,19,9.70
2009,10,27,15,20,9.70
2009,10,27,15,21,9.70
2009,10,27,15,22,9.80
2009,10,27,15,23,9.80
2009,10,27,15,24,9.80
2009,10,27,15,25,9.80
2009,10,27,15,26,9.90
2009,10,27,15,27,9.90
2009,10,27,15,28,9.90
2009,10,27,15,29,9.90
2009,10,27,15,30,9.90
2009,10,27,15,31,9.90
2009,10,27,15,32,9.90
2009,10,27,15,33,9.90
2009,10,27,15,34,10.00
2009,10,27,15,35,10.00
2009,10,27,15,36,10.10
2009,10,27,15,37,10.00
2009,10,27,15,38,10.00
2009,10,27,15,39,9.90
2009,10,27,15,40,9.90
2009,10,27,15,41,9.90
2009,10,27,15,42,9.90
2009,10,27,15,43,9.90
2009,10,27,15,44,9.90
2009,10,27,15,45,10.00
2009,10,27,15,46,10.00
2009,10,27,15,47,10.10
2009,10,27,15,48,10.10
2009,10,27,15,49,10.10
2009,10,27,15,50,10.20
2009,10,27,15,51,10.20
2009,10,27,15,52,10.20
2009,10,27,15,53,10.20
2009,10,27,15,54,10.30
2009,10,27,15,55,10.30
2009,10,27,15,56,10.30
2009,10,27,15,57,10.40
2009,10,27,15,58,10.40
2009,10,27,15,59,10.40
2009,10,27,16,00,10.40
2009,10,27,16,01,10.40
2009,10,27,16,02,10.40
2009,10,27,16,03,10.40
2009,10,27,16,04,10.40
2009,10,27,16,05,10.40
2009,10,27,16,06,10.40
2009,10,27,16,07,10.40
2009,10,27,16,08,10.30
2009,10,27,16,09,10.30
2009,10,27,16,10,10.30
2009,10,27,16,11,10.30
2009,10,27,16,12,10.30
2009,10,27,16,13,10.30
2009,10,27,16,14,10.30
2009,10,27,16,15,10.30
2009,10,27,16,16,10.30
2009,10,27,16,17,10.30
2009,10,27,16,18,10.30
2009,10,27,16,19,10.30
2009,10,27,16,20,10.30
2009,10,27,16,21,10.30
2009,10,27,16,22,10.30
2009,10,27,16,23,10.30
2009,10,27,16,24,10.30
2009,10,27,16,25,10.30
2009,10,27,16,26,10.30
2009,10,27,16,27,10.30
2009,10,27,16,28,10.30
2009,10,27,16,29,10.30
2009,10,27,16,30,10.30
2009,10,27,16,31,10.40
2009,10,27,16,32,10.40
2009,10,27,16,33,10.40
2009,10,27,16,34,10.40
2009,10,27,16,35,10.40
2009,10,27,16,36,10.50
2009,10,27,16,37,10.50
2009,10,27,16,38,10.50
2009,10,27,16,39,10.50
2009,10,27,16,40,10.50
2009,10,27,16,41,10.50
2009,10,27,16,42,10.50
2009,10,27,16,43,10.50
2009,10,27,16,44,10.50
2009,10,27,16,45,10.40
2009,10,27,16,46,10.40
2009,10,27,16,47,10.40
2009,10,27,16,48,10.40
2009,10,27,16,49,10.40
2009,10,27,16,50,10.50
2009,10,27,16,51,10.50
2009,10,27,16,52,10.50
2009,10,27,16,53,10.50
2009,10,27,16,54,10.50
2009,10,27,16,55,10.50
2009,10,27,16,56,10.50
2009,10,27,16,57,10.40
2009,10,27,16,58,10.40
2009,10,27,16,59,10.40
2009,10,27,17,00,10.40
2009,10,27,17,01,10.40
2009,10,27,17,02,10.40
2009,10,27,17,03,10.40
2009,10,27,17,04,10.40
2009,10,27,17,05,10.40
2009,10,27,17,06,10.50
2009,10,27,17,07,10.50
2009,10,27,17,08,10.60
2009,10,27,17,09,10.70
2009,10,27,17,10,10.70
2009,10,27,17,11,10.80
2009,10,27,17,12,10.80
2009,10,27,17,13,10.80
2009,10,27,17,14,10.80
2009,10,27,17,15,10.80
2009,10,27,17,16,10.80
2009,10,27,17,17,10.80
2009,10,27,17,18,10.80
2009,10,27,17,19,10.80
2009,10,27,17,20,10.70
2009,10,27,17,21,10.70
2009,10,27,17,22,10.60
2009,10,27,17,23,10.60
2009,10,27,17,24,10.60
2009,10,27,17,25,10.60
2009,10,27,17,26,10.50
2009,10,27,17,27,10.50
2009,10,27,17,28,10.50
2009,10,27,17,29,10.40
2009,10,27,17,30,10.40
2009,10,27,17,31,10.40
2009,10,27,17,32,10.40
2009,10,27,17,33,10.30
2009,10,27,17,34,10.30
2009,10,27,17,35,10.30
2009,10,27,17,36,10.30
2009,10,27,17,37,10.20
2009,10,27,17,38,10.20
2009,10,27,17,39,10.20
2009,10,27,17,40,10.10
2009,10,27,17,41,10.10
2009,10,27,17,42,10.10
2009,10,27,17,43,10.00
2009,10,27,17,44,10.00
2009,10,27,17,45,10.00
2009,10,27,17,46,9.90
2009,10,27,17,47,9.90
2009,10,27,17,48,9.90
2009,10,27,17,49,9.90
2009,10,27,17,50,9.90
2009,10,27,17,51,9.80
2009,10,27,17,52,9.80
2009,10,27,17,53,9.80
2009,10,27,17,54,9.80
2009,10,27,17,55,9.80
2009,10,27,17,56,9.80
2009,10,27,17,57,9.80
2009,10,27,17,58,9.80
2009,10,27,17,59,9.80
2009,10,27,18,00,9.80